Flag for Jersey Weather past 2 weeks in Saint Helier, Jersey

Now
55 °F

Cool.


Feels Like: 52 °F
Forecast: 45 / 52 °F
Wind: 12 mph from Northeast

Location: Jersey Airport

Current Time: Apr 26, 2015 at 2:54:39 PM

Latest Report: Apr 26, 2015 at 2:20 PM


Visibility: 1 mi

Pressure: 29.71 "Hg

Humidity: 94%

Dew point: 54 °F

Location of Saint HelierLocation

Historic Weather in Saint Helier — Graph

°F

Saint Helier temperature yesterday

Maximum temperature yesterday: 61 °F (at 4:20 PM)
Minimum temperature yesterday: 50 °F (at 3:50 AM)
Average temperature yesterday: 55 °F

Past Weeks' High & Low Weather Summary

 TemperatureHumidityPressure
High75 °F (Apr 15, 3:20 PM)100% (Apr 12, 5:20 AM)30.48 "Hg (Apr 12, 5:20 AM)
Low39 °F (Apr 12, 4:20 AM)31% (Apr 15, 4:20 PM)29.71 "Hg (Apr 26, 5:20 AM)
Average55 °F76%30.13 "Hg
* Reported Apr 11 1:20 PM — Apr 26 1:50 PM, Saint Helier, Weather by CustomWeather, © 2015

Note: Actual official high and low records may vary slightly from our data, if they occured in-between our weather recording intervals... More about our weather records

Advertising

Saint Helier weather history for previous 24 hours

 ConditionsComfort  
Time TempWeatherWind HumidityBarometerVisibility
1:50 PM
Sun, Apr 26
54 °FFog.9 mph100%29.71 "Hg2 mi
1:20 PM54 °FLight rain. Fog.9 mph100%29.71 "Hg2 mi
12:50 PM54 °FPartly sunny.9 mph100%29.71 "Hg4 mi
12:20 PM54 °FSprinkles. Partly sunny.7 mph100%29.71 "Hg4 mi
11:50 AM54 °FDrizzle. Broken clouds.6 mph100%29.71 "Hg4 mi
11:20 AM54 °FPartly sunny.8 mph94%29.71 "Hg4 mi
10:50 AM54 °FPartly sunny.5 mph94%29.71 "HgN/A
10:20 AM55 °FBroken clouds.6 mph94%29.71 "HgN/A
9:50 AM55 °FPartly sunny.5 mph94%29.71 "Hg6 mi
9:20 AM54 °FPartly sunny.5 mph100%29.71 "HgN/A
8:50 AM54 °FBroken clouds.6 mph94%29.71 "HgN/A
8:20 AM52 °FPartly sunny.7 mph100%29.71 "HgN/A
7:50 AM52 °FBroken clouds.5 mph100%29.71 "HgN/A
7:20 AM52 °FPartly sunny.5 mph100%29.71 "HgN/A
6:50 AM52 °FPartly cloudy.3 mph100%29.71 "HgN/A
6:20 AM52 °FSleet. Passing clouds.5 mph94%29.71 "HgN/A
5:50 AM52 °FPassing clouds.3 mph100%29.71 "HgN/A
5:20 AM52 °FPartly cloudy.6 mph100%29.71 "HgN/A
4:20 AM52 °FPassing clouds.6 mph100%29.74 "HgN/A
3:50 AM52 °FPassing clouds.5 mph94%29.74 "HgN/A
8:50 PM
Sat, Apr 25
54 °FSprinkles. Broken clouds.5 mph94%29.77 "HgN/A
8:20 PM55 °FSprinkles. Broken clouds.5 mph88%29.74 "HgN/A
7:50 PM55 °FPartly sunny.6 mph88%29.74 "HgN/A
7:20 PM55 °FPassing clouds.6 mph88%29.74 "HgN/A
6:50 PM57 °FPassing clouds.12 mph82%29.74 "HgN/A
6:20 PM57 °FPassing clouds.6 mph88%29.74 "HgN/A
5:50 PM57 °FScattered clouds.10 mph88%29.74 "HgN/A
5:20 PM57 °FSprinkles. Scattered clouds.8 mph88%29.74 "HgN/A
4:50 PM57 °FBroken clouds.9 mph88%29.74 "HgN/A
4:20 PM61 °FPassing clouds.10 mph83%29.74 "HgN/A
3:50 PM57 °FPassing clouds.12 mph94%29.74 "HgN/A
3:20 PM57 °FPassing clouds.8 mph94%29.74 "HgN/A
2:50 PM54 °FSprinkles. Broken clouds.8 mph100%29.74 "HgN/A
2:20 PM55 °FBroken clouds.9 mph100%29.74 "HgN/A
Weather by CustomWeather, © 2015

See weather overviewHow to use our weather pages